Location: Val-d'Or
(48.1170°N, 77.7670°W)
Time: 14:39:18
(UTC-04:00)

ISS - Visible Passes

Search period start: 23 May 2018 00:00
Search period end: 02 June 2018 00:00
Orbit: 402 x 407 km, 51.6° (Epoch: 24 May)

Date Brightness Start Highest point End Pass type
(mag) Time Alt. Az. Time Alt. Az. Time Alt. Az.
23 May -2.6 00:49:04 10° WNW 00:52:12 42° N 00:55:21 10° ENE visible
23 May -3.9 02:25:39 10° WNW 02:28:56 85° NNE 02:32:12 10° ESE visible
23 May -2.5 04:02:36 10° W 04:05:06 20° SW 04:07:36 10° S visible
23 May -3.9 22:19:57 10° WSW 22:23:13 88° SSE 22:26:31 10° ENE visible
23 May -2.6 23:56:46 10° WNW 23:59:55 43° N 00:03:04 10° ENE visible
24 May -3.4 01:33:27 10° WNW 01:36:43 62° NNE 01:37:42 39° E visible
24 May -1.3 03:10:06 10° W 03:10:12 11° W 03:10:12 11° W visible
24 May -3.8 21:27:50 10° SW 21:31:03 57° SSE 21:34:17 10° ENE visible
24 May -2.8 23:04:26 10° W 23:07:37 48° N 23:10:49 10° ENE visible
25 May -2.9 00:41:15 10° WNW 00:44:26 49° N 00:46:03 25° ENE visible
25 May -1.7 02:17:47 10° WNW 02:18:38 17° WNW 02:18:38 17° WNW visible
25 May -3.2 22:12:05 10° W 22:15:20 60° NNW 22:18:34 10° ENE visible
25 May -2.7 23:48:59 10° WNW 23:52:08 43° N 23:55:03 11° ENE visible
26 May -2.8 01:25:32 10° WNW 01:27:39 37° WNW 01:27:39 37° WNW visible
26 May -2.6 22:56:39 10° WNW 22:59:48 42° N 23:02:56 10° ENE visible
27 May -3.6 00:33:18 10° WNW 00:36:34 69° NNE 00:36:52 63° ENE visible
27 May -2.7 22:04:17 10° W 22:07:27 46° N 22:10:38 10° ENE visible
27 May -3.1 23:41:03 10° WNW 23:44:16 53° NNE 23:46:08 22° E visible
28 May -1.8 01:17:37 10° WNW 01:18:46 19° W 01:18:46 19° W visible
28 May -2.8 22:48:46 10° WNW 22:51:56 45° N 22:55:06 10° E visible
29 May -3.6 00:25:18 10° WNW 00:28:06 59° W 00:28:06 59° W visible
29 May -2.6 21:56:25 10° WNW 21:59:34 42° N 22:02:43 10° ENE visible
29 May -3.8 23:33:02 10° WNW 23:36:19 77° NNE 23:37:28 37° E visible
30 May -1.1 01:09:51 10° W 01:10:06 11° W 01:10:06 11° W visible
30 May -3.3 22:40:45 10° WNW 22:43:59 57° NNE 22:46:52 12° E visible
31 May -2.6 00:17:20 10° WNW 00:19:30 30° WSW 00:19:30 30° WSW visible
31 May -2.9 21:48:26 10° WNW 21:51:37 47° N 21:54:48 10° E visible
31 May -3.8 23:24:58 10° WNW 23:28:12 62° SSW 23:28:54 46° SSE visible
01 Jun -3.9 22:32:38 10° WNW 22:35:56 87° NNE 22:38:21 17° ESE visible
